Weather in Erkeshevo

Russia / Udmurt Republic     58°03′38″N   53°11′14″E
temp.,
°C
wind,
m/s
gust,
m/s
humid.,
%
clouds,
%
prec.,
mm/h
press.,
hPa
HPBL,
m
14 may, fri
fri1401:00+15s22625 0.0 102422
04:00+15s236760 0.0 102443
07:00+19s2656100 0.0 1024210
10:00+25ssw354062 0.0 1023998
13:00+28ssw473253 0.0 10212004
16:00+28ssw583010 0.0 10202347
19:00+24ssw494332 0.0 1019387
22:00+18s2863100 0.0 1020154
15 may, sat
sat1501:00+16ssw210715 0.0 1019224
04:00+15sw2679100 0.0 1019128
07:00+18wsw2572100 0.0 1020232
10:00+23sw3555100 0.0 1019842
13:00+26sw4646100 0.0 10191353
16:00+28sw5735100 0.0 10171573
19:00+24sw41145100 0.0 1017516
22:00+20sw41555100 0.0 1016524
16 may, sun
sun1601:00+18sw3135675 0.0 1016343
04:00+15sw23682 0.0 101763
07:00+19ssw37555 0.0 1017275
10:00+25sw483514 0.0 1016791
13:00+29sw612235 0.0 10152732
16:00+29sw6122536 0.0 10143431
19:00+25sw41141100 0.0 1014527
22:00+20ssw3125679 0.0 1014279
17 may, mon
mon1701:00+17sw267452 0.1 1014126
04:00+15wsw289011 0.6 1015172
07:00+18wsw377326 0.0 1016317
10:00+22wsw5847100 0.0 10161407
13:00+24w5940100 0.0 10161803
16:00+25w5103851 0.0 10162105
19:00+22w49501 0.0 1016905
22:00+16w277413 0.0 1016129
18 may, tue
tue1801:00+15wnw128410 0.0 101718
04:00+14w11862 0.0 101718
07:00+18nw126661 0.0 1017252
10:00+23wnw234857 0.0 10171153
13:00+25wnw353995 0.0 10172003
16:00+26wnw353530 0.0 10162382
19:00+23nne255028 0.0 1016159
22:00+16ene3965100 0.0 1018194